Weather Roundup
Issued by NWS Chicago, IL

Home | Current Version | Previous Version | Text Only | Print | Product List | Glossary On
Versions: 1 2 3 4 5 6 7 8 9 10 11 12 13 14 15 16 17 18 19 20 21 22 23 24 25 26 27 28 29 30 31 32 33 34 35 36 37 38 39 40 41 42 43 44 45 46 47 48 49 50
000
NZUS59 KLOT 280600
HRRLOT

CHICAGO AREA WEATHER ROUNDUP
NATIONAL WEATHER SERVICE CHICAGO/ROMEOVILLE IL
100 AM CDT TUE JUL 28 2015

NOTE: "FAIR" INDICATES FEW OR NO CLOUDS BELOW 12,000 FEET WITH NO
SIGNIFICANT WEATHER AND/OR OBSTRUCTIONS TO VISIBILITY.

* THESE STATIONS ARE NOT UNDER NWS QUALITY CONTROL. THEY ALSO MAY NOT
  REPORT WEATHER SUCH AS PRECIPITATION OR FOG.

ILZ005-006-012>014-019>023-280700-
NORTHEAST ILLINOIS

CITY           SKY/WX    TMP DP  RH WIND       PRES   REMARKS
OHARE          MOCLDY    74  67  78 E6        29.99F
6HR MIN TEMP:  74; 6HR MAX TEMP:  81;

MIDWAY         CLOUDY    76  66  71 E6        29.98F
6HR MIN TEMP:  76; 6HR MAX TEMP:  84;

AURORA         MOCLDY    72  63  73 E6        30.00S
6HR MIN TEMP:  70; 6HR MAX TEMP:  82;

LANSING*       PTCLDY    72  65  80 E3        29.99F
WAUKEGAN       PTCLDY    66  64  93 E3        30.00F
6HR MIN TEMP:  66; 6HR MAX TEMP:  75;

DUPAGE AIRPORT MOCLDY    72  64  76 E6        30.00S
6HR MIN TEMP:  72; 6HR MAX TEMP:  82;

WHEELING       MOCLDY    72  67  84 CALM      30.01F
6HR MIN TEMP:  70; 6HR MAX TEMP:  79;

NORTHERLY IS     N/A     74  68  81 NE6         N/A
$$

WIZ051-052-058>065-066-070>072-280700-
SOUTHEAST WISCONSIN

CITY           SKY/WX    TMP DP  RH WIND       PRES   REMARKS
MILWAUKEE      PTCLDY    70  64  81 CALM      30.02R
6HR MIN TEMP:  70; 6HR MAX TEMP:  78;

KENOSHA*       PTCLDY    66  64  93 CALM      30.02S
RACINE*        CLEAR     70  64  81 CALM      30.03S
$$

INZ001>003-010>013-019-020-280700-
NORTHWEST INDIANA

CITY           SKY/WX    TMP DP  RH WIND       PRES   REMARKS
GARY*          NOT AVBL
MICHIGAN CITY* NOT AVBL
RENSSELAER*    NOT AVBL
$$

LMZ740>746-280700-
SOUTHERN LAKE MICHIGAN

STATION/POSITION TIME  SKY/WX   TEMP WIND        PRES    VSBY
                                AIR  DIR/SP/G
                 (UTC)          (F)  (DEG/KT/KT) (MB)    (MI)
HARRISON CRIB    0500            74   80/ 12/ 14   N/A
BURNHAM HARBOR   0500            73   20/  3/  4   N/A
CALUMET HARBOR   0500            74   70/  4/  6   N/A
BURNS HARBOR     0500            73   70/  6/  6 1016.6F
MICHIGAN CITY    0500            72   60/  2/  2   N/A
$$

ABBREVIATIONS USED IN REMARKS
   TC - TEMPERATURE IN CELSIUS
  WCI - WIND CHILL INDEX
   HX - HEAT INDEX
  VSB - VISIBILITY
$$


USA.gov is the U.S. government's official web portal to all federal, state and local government web resources and services.